Powrót do katalogu

ASTRA 2G

AktywnyŁącznośćGEO
NORAD 40364·PAYLOAD·🇱🇺 Luxembourg

Wystrzelony Dec 27, 2014 z Baikonur Cosmodrome

Loading…

TLE

ŚwieżeSource: CelesTrak SupGP

Epoka: Sep 13, 2026, 23:30 UTC

1 40364C 14089A   26256.97916667  .00000220  00000+0  00000+0 0  2569
2 40364   0.0289 294.4609 0002981 147.4567 291.7020  1.00264605    12

Śledź ASTRA 2G w czasie rzeczywistym z AllMySat

Download on the App Store